Time,TemperatureF,DewpointF,PressureIn,WindDirection,WindDirectionDegrees,WindSpeedMPH,WindSpeedGustMPH,Humidity,HourlyPrecipIn,Conditions,Clouds,dailyrainin,SoftwareType,DateUTC
2013-01-09 00:02:00,46.7,39.6,29.32,South,176,0.0,0.0,76,0.00,,---,0.00,VWS V14.00,2013-01-09 06:02:00,
2013-01-09 00:04:00,46.7,39.6,29.32,South,176,0.0,0.0,76,0.00,,---,0.00,VWS V14.00,2013-01-09 06:04:00,
2013-01-09 00:05:00,46.7,39.6,29.32,South,176,0.0,0.0,76,0.00,,---,0.00,VWS V14.00,2013-01-09 06:05:00,
2013-01-09 00:11:00,46.7,40.6,29.32,South,176,0.0,0.0,79,0.00,,---,0.00,VWS V14.00,2013-01-09 06:11:00,
2013-01-09 00:14:00,46.7,40.6,29.32,South,176,0.0,0.0,79,0.00,,---,0.00,VWS V14.00,2013-01-09 06:14:00,
2013-01-09 00:19:00,46.7,40.6,29.32,South,176,0.0,0.0,79,0.00,,---,0.00,VWS V14.00,2013-01-09 06:19:00,
2013-01-09 00:20:00,46.7,40.6,29.32,South,176,0.0,0.0,79,0.00,,---,0.00,VWS V14.00,2013-01-09 06:20:00,
2013-01-09 00:26:00,46.7,40.6,29.32,South,176,0.0,0.0,79,0.00,,---,0.00,VWS V14.00,2013-01-09 06:26:00,
2013-01-09 00:32:00,46.2,41.0,29.32,South,176,0.0,0.0,82,0.00,,---,0.00,VWS V14.00,2013-01-09 06:32:00,
2013-01-09 00:35:00,46.2,41.0,29.32,South,176,0.0,0.0,82,0.00,,---,0.00,VWS V14.00,2013-01-09 06:35:00,
2013-01-09 00:38:00,46.2,41.0,29.32,South,176,0.0,0.0,82,0.00,,---,0.00,VWS V14.00,2013-01-09 06:38:00,
2013-01-09 00:44:00,46.2,41.0,29.35,South,176,0.0,0.0,82,0.00,,---,0.00,VWS V14.00,2013-01-09 06:44:00,
2013-01-09 00:47:00,46.2,41.0,29.35,South,176,0.0,0.0,82,0.00,,---,0.00,VWS V14.00,2013-01-09 06:47:00,
2013-01-09 00:50:00,46.2,41.0,29.35,South,176,0.0,0.0,82,0.00,,---,0.00,VWS V14.00,2013-01-09 06:50:00,
2013-01-09 00:53:00,46.2,41.0,29.35,South,176,0.0,0.0,82,0.00,,---,0.00,VWS V14.00,2013-01-09 06:53:00,
2013-01-09 00:56:00,46.2,41.0,29.35,South,176,0.0,0.0,82,0.00,,---,0.00,VWS V14.00,2013-01-09 06:56:00,
2013-01-09 00:59:00,46.0,41.5,29.35,South,176,0.0,0.0,84,0.00,,---,0.00,VWS V14.00,2013-01-09 06:59:00,
2013-01-09 01:04:00,45.8,41.6,29.35,South,176,0.0,0.0,85,0.00,,---,0.00,VWS V14.00,2013-01-09 07:04:00,
2013-01-09 01:11:00,45.8,41.6,29.35,South,176,0.0,0.0,85,0.00,,---,0.00,VWS V14.00,2013-01-09 07:11:00,
2013-01-09 01:14:00,45.8,41.6,29.35,South,176,0.0,0.0,85,0.00,,---,0.00,VWS V14.00,2013-01-09 07:14:00,
2013-01-09 01:17:00,45.8,41.6,29.35,South,176,0.0,0.0,85,0.00,,---,0.00,VWS V14.00,2013-01-09 07:17:00,
2013-01-09 01:20:00,45.8,41.6,29.35,South,176,0.0,0.0,85,0.00,,---,0.00,VWS V14.00,2013-01-09 07:20:00,
2013-01-09 01:23:00,46.2,41.6,29.32,South,176,0.0,0.0,84,0.00,,---,0.00,VWS V14.00,2013-01-09 07:23:00,
2013-01-09 01:26:00,46.2,41.6,29.32,South,176,0.0,0.0,84,0.00,,---,0.00,VWS V14.00,2013-01-09 07:26:00,
2013-01-09 01:32:00,46.2,41.6,29.32,South,176,0.0,0.0,84,0.00,,---,0.00,VWS V14.00,2013-01-09 07:32:00,
2013-01-09 01:34:00,46.2,41.6,29.32,South,176,0.0,0.0,84,0.00,,---,0.00,VWS V14.00,2013-01-09 07:34:00,
2013-01-09 01:38:00,46.2,41.6,29.35,South,176,0.0,0.0,84,0.00,,---,0.00,VWS V14.00,2013-01-09 07:38:00,
2013-01-09 01:41:00,46.2,41.6,29.35,South,176,0.0,0.0,84,0.00,,---,0.00,VWS V14.00,2013-01-09 07:41:00,
2013-01-09 01:44:00,46.2,41.6,29.35,South,176,0.0,0.0,84,0.00,,---,0.00,VWS V14.00,2013-01-09 07:44:00,
2013-01-09 01:47:00,46.2,41.6,29.35,South,176,0.0,0.0,84,0.00,,---,0.00,VWS V14.00,2013-01-09 07:47:00,
2013-01-09 01:49:00,46.2,41.6,29.35,South,176,0.0,0.0,84,0.00,,---,0.00,VWS V14.00,2013-01-09 07:49:00,
2013-01-09 01:53:00,46.2,41.6,29.35,South,176,0.0,0.0,84,0.00,,---,0.00,VWS V14.00,2013-01-09 07:53:00,
2013-01-09 01:56:00,46.2,41.6,29.35,South,176,0.0,0.0,84,0.00,,---,0.00,VWS V14.00,2013-01-09 07:56:00,
2013-01-09 02:02:00,46.2,41.6,29.35,South,176,0.0,0.0,84,0.00,,---,0.00,VWS V14.00,2013-01-09 08:02:00,
2013-01-09 02:04:00,46.2,42.0,29.35,South,176,0.0,0.0,85,0.00,,---,0.00,VWS V14.00,2013-01-09 08:04:00,
2013-01-09 02:05:00,46.2,42.0,29.35,South,176,0.0,0.0,85,0.00,,---,0.00,VWS V14.00,2013-01-09 08:05:00,
2013-01-09 02:11:00,46.2,42.0,29.35,South,176,0.0,0.0,85,0.00,,---,0.00,VWS V14.00,2013-01-09 08:11:00,
2013-01-09 02:17:00,45.8,41.9,29.35,South,176,0.0,0.0,86,0.00,,---,0.00,VWS V14.00,2013-01-09 08:17:00,
2013-01-09 02:19:00,45.8,41.9,29.35,South,176,0.0,0.0,86,0.00,,---,0.00,VWS V14.00,2013-01-09 08:19:00,
2013-01-09 02:20:00,45.8,41.9,29.35,South,176,0.0,0.0,86,0.00,,---,0.00,VWS V14.00,2013-01-09 08:20:00,
2013-01-09 02:23:00,45.8,42.2,29.35,South,176,0.0,0.0,87,0.00,,---,0.00,VWS V14.00,2013-01-09 08:23:00,
2013-01-09 02:26:00,45.8,42.2,29.35,South,176,0.0,0.0,87,0.00,,---,0.00,VWS V14.00,2013-01-09 08:26:00,
2013-01-09 02:32:00,46.0,42.4,29.35,South,176,0.0,0.0,87,0.00,,---,0.00,VWS V14.00,2013-01-09 08:32:00,
2013-01-09 02:38:00,46.0,42.4,29.35,South,176,0.0,0.0,87,0.00,,---,0.00,VWS V14.00,2013-01-09 08:38:00,
2013-01-09 02:41:00,46.0,42.4,29.35,South,176,0.0,0.0,87,0.00,,---,0.00,VWS V14.00,2013-01-09 08:41:00,
2013-01-09 02:44:00,46.0,42.1,29.35,South,176,0.0,0.0,86,0.00,,---,0.00,VWS V14.00,2013-01-09 08:44:00,
2013-01-09 02:47:00,46.2,42.0,29.35,South,176,0.0,0.0,85,0.00,,---,0.00,VWS V14.00,2013-01-09 08:47:00,
2013-01-09 02:49:00,46.2,42.0,29.35,South,176,0.0,0.0,85,0.00,,---,0.00,VWS V14.00,2013-01-09 08:49:00,
2013-01-09 02:54:00,46.2,42.0,29.35,South,176,0.0,0.0,85,0.00,,---,0.00,VWS V14.00,2013-01-09 08:54:00,
2013-01-09 02:57:00,46.0,41.8,29.35,South,176,0.0,0.0,85,0.00,,---,0.00,VWS V14.00,2013-01-09 08:57:00,
2013-01-09 03:00:00,46.0,42.1,29.35,South,176,0.0,0.0,86,0.00,,---,0.00,VWS V14.00,2013-01-09 09:00:00,
2013-01-09 03:03:00,46.0,42.1,29.35,South,176,0.0,0.0,86,0.00,,---,0.00,VWS V14.00,2013-01-09 09:03:00,
2013-01-09 03:06:00,45.8,41.9,29.35,South,176,0.0,0.0,86,0.00,,---,0.00,VWS V14.00,2013-01-09 09:06:00,
2013-01-09 03:12:00,46.0,42.1,29.35,South,176,0.0,0.0,86,0.00,,---,0.00,VWS V14.00,2013-01-09 09:12:00,
2013-01-09 03:15:00,46.2,42.2,29.35,South,176,0.0,0.0,86,0.00,,---,0.00,VWS V14.00,2013-01-09 09:15:00,
2013-01-09 03:18:00,46.2,42.2,29.35,South,176,0.0,0.0,86,0.00,,---,0.00,VWS V14.00,2013-01-09 09:18:00,
2013-01-09 03:19:00,46.2,42.2,29.35,South,176,0.0,0.0,86,0.00,,---,0.00,VWS V14.00,2013-01-09 09:19:00,
2013-01-09 03:27:00,46.2,42.5,29.35,South,176,0.0,0.0,87,0.00,,---,0.00,VWS V14.00,2013-01-09 09:27:00,
2013-01-09 03:30:00,46.2,42.5,29.35,South,176,0.0,0.0,87,0.00,,---,0.00,VWS V14.00,2013-01-09 09:30:00,
2013-01-09 03:34:00,46.2,42.5,29.35,South,176,0.0,0.0,87,0.00,,---,0.00,VWS V14.00,2013-01-09 09:34:00,
2013-01-09 03:36:00,46.2,42.5,29.35,South,176,0.0,0.0,87,0.00,,---,0.00,VWS V14.00,2013-01-09 09:36:00,
2013-01-09 03:42:00,46.2,42.5,29.35,South,176,2.7,2.7,87,0.00,,---,0.00,VWS V14.00,2013-01-09 09:42:00,
2013-01-09 03:45:00,46.2,42.2,29.35,South,178,3.6,5.4,86,0.00,,---,0.00,VWS V14.00,2013-01-09 09:45:00,
2013-01-09 03:51:00,46.2,42.2,29.35,South,178,0.0,0.0,86,0.00,,---,0.00,VWS V14.00,2013-01-09 09:51:00,
2013-01-09 03:54:00,46.2,42.2,29.35,South,178,0.0,0.0,86,0.00,,---,0.00,VWS V14.00,2013-01-09 09:54:00,
2013-01-09 03:57:00,46.2,42.0,29.35,South,178,0.0,0.0,85,0.00,,---,0.00,VWS V14.00,2013-01-09 09:57:00,
2013-01-09 04:00:00,46.2,42.0,29.35,South,178,0.0,0.0,85,0.00,,---,0.00,VWS V14.00,2013-01-09 10:00:00,
2013-01-09 04:03:00,46.2,42.0,29.35,South,178,0.0,0.0,85,0.00,,---,0.00,VWS V14.00,2013-01-09 10:03:00,
2013-01-09 04:06:00,46.0,42.1,29.35,South,178,0.0,0.0,86,0.00,,---,0.00,VWS V14.00,2013-01-09 10:06:00,
2013-01-09 04:12:00,46.0,42.1,29.35,South,178,0.0,0.0,86,0.00,,---,0.00,VWS V14.00,2013-01-09 10:12:00,
2013-01-09 04:15:00,46.0,42.1,29.35,South,178,0.0,0.0,86,0.00,,---,0.00,VWS V14.00,2013-01-09 10:15:00,
2013-01-09 04:18:00,46.0,42.1,29.35,South,178,0.0,0.0,86,0.00,,---,0.00,VWS V14.00,2013-01-09 10:18:00,
2013-01-09 04:21:00,46.0,42.4,29.35,South,178,0.0,0.0,87,0.00,,---,0.00,VWS V14.00,2013-01-09 10:21:00,
2013-01-09 04:24:00,45.8,42.2,29.35,South,178,0.0,0.0,87,0.00,,---,0.00,VWS V14.00,2013-01-09 10:24:00,
2013-01-09 04:27:00,45.8,42.2,29.35,South,178,0.0,0.0,87,0.00,,---,0.00,VWS V14.00,2013-01-09 10:27:00,
2013-01-09 04:30:00,45.8,42.2,29.35,South,178,0.0,0.0,87,0.00,,---,0.00,VWS V14.00,2013-01-09 10:30:00,
2013-01-09 04:34:00,46.0,42.4,29.35,South,178,0.0,0.0,87,0.00,,---,0.00,VWS V14.00,2013-01-09 10:34:00,
2013-01-09 04:39:00,46.0,42.4,29.35,South,178,0.0,0.0,87,0.00,,---,0.00,VWS V14.00,2013-01-09 10:39:00,
2013-01-09 04:42:00,46.0,42.4,29.35,South,178,0.0,0.0,87,0.00,,---,0.00,VWS V14.00,2013-01-09 10:42:00,
2013-01-09 04:45:00,46.0,42.4,29.35,South,178,0.0,0.0,87,0.00,,---,0.00,VWS V14.00,2013-01-09 10:45:00,
2013-01-09 04:49:00,46.0,42.4,29.35,South,178,0.0,0.0,87,0.00,,---,0.00,VWS V14.00,2013-01-09 10:49:00,
2013-01-09 04:51:00,46.0,42.4,29.35,South,178,0.0,0.0,87,0.00,,---,0.00,VWS V14.00,2013-01-09 10:51:00,
2013-01-09 04:54:00,46.0,42.4,29.35,South,178,0.0,0.0,87,0.00,,---,0.00,VWS V14.00,2013-01-09 10:54:00,
2013-01-09 04:57:00,46.0,42.4,29.35,South,178,0.0,0.0,87,0.00,,---,0.00,VWS V14.00,2013-01-09 10:57:00,
2013-01-09 05:03:00,46.0,42.4,29.35,South,178,0.0,0.0,87,0.00,,---,0.00,VWS V14.00,2013-01-09 11:03:00,
2013-01-09 05:06:00,46.0,42.4,29.35,South,178,0.0,0.0,87,0.00,,---,0.00,VWS V14.00,2013-01-09 11:06:00,
2013-01-09 05:09:00,46.0,42.4,29.35,South,178,0.0,0.0,87,0.00,,---,0.00,VWS V14.00,2013-01-09 11:09:00,
2013-01-09 05:12:00,46.0,42.4,29.35,South,178,0.0,0.0,87,0.00,,---,0.00,VWS V14.00,2013-01-09 11:12:00,
2013-01-09 05:15:00,46.0,42.4,29.35,South,178,0.0,0.0,87,0.00,,---,0.00,VWS V14.00,2013-01-09 11:15:00,
2013-01-09 05:18:00,46.0,42.4,29.35,South,178,0.0,0.0,87,0.00,,---,0.00,VWS V14.00,2013-01-09 11:18:00,
2013-01-09 05:19:00,46.0,42.4,29.35,South,178,0.0,0.0,87,0.00,,---,0.00,VWS V14.00,2013-01-09 11:19:00,
2013-01-09 05:27:00,46.0,42.4,29.38,South,178,0.0,0.0,87,0.00,,---,0.00,VWS V14.00,2013-01-09 11:27:00,
2013-01-09 05:30:00,46.0,42.4,29.38,South,178,0.0,0.0,87,0.00,,---,0.00,VWS V14.00,2013-01-09 11:30:00,
2013-01-09 05:33:00,46.0,42.4,29.38,South,178,0.0,0.0,87,0.00,,---,0.00,VWS V14.00,2013-01-09 11:33:00,
2013-01-09 05:36:00,46.2,42.8,29.38,South,178,0.0,0.0,88,0.00,,---,0.00,VWS V14.00,2013-01-09 11:36:00,
2013-01-09 05:42:00,46.2,42.8,29.38,South,178,0.0,0.0,88,0.00,,---,0.00,VWS V14.00,2013-01-09 11:42:00,
2013-01-09 05:48:00,46.2,42.5,29.38,South,178,0.0,0.0,87,0.00,,---,0.00,VWS V14.00,2013-01-09 11:48:00,
2013-01-09 05:49:00,46.2,42.5,29.38,South,178,0.0,0.0,87,0.00,,---,0.00,VWS V14.00,2013-01-09 11:49:00,
2013-01-09 05:51:00,46.2,42.5,29.38,South,178,0.0,0.0,87,0.00,,---,0.00,VWS V14.00,2013-01-09 11:51:00,
2013-01-09 05:57:00,46.2,42.5,29.38,South,178,0.0,0.0,87,0.00,,---,0.00,VWS V14.00,2013-01-09 11:57:00,
2013-01-09 06:00:00,46.2,42.5,29.38,South,178,0.0,0.0,87,0.00,,---,0.00,VWS V14.00,2013-01-09 12:00:00,
2013-01-09 06:04:00,46.2,42.5,29.38,South,178,0.0,0.0,87,0.00,,---,0.00,VWS V14.00,2013-01-09 12:04:00,
2013-01-09 06:06:00,46.2,42.5,29.38,South,178,0.0,0.0,87,0.00,,---,0.00,VWS V14.00,2013-01-09 12:06:00,
2013-01-09 06:12:00,46.2,42.5,29.38,South,178,0.0,0.0,87,0.00,,---,0.00,VWS V14.00,2013-01-09 12:12:00,
2013-01-09 06:15:00,46.2,42.5,29.38,South,178,0.0,0.0,87,0.00,,---,0.00,VWS V14.00,2013-01-09 12:15:00,
2013-01-09 06:18:00,46.2,42.8,29.38,South,178,0.0,0.0,88,0.00,,---,0.00,VWS V14.00,2013-01-09 12:18:00,
2013-01-09 06:21:00,46.0,42.7,29.38,South,178,0.0,0.0,88,0.00,,---,0.00,VWS V14.00,2013-01-09 12:21:00,
2013-01-09 06:27:00,46.0,42.7,29.41,South,178,0.0,0.0,88,0.00,,---,0.00,VWS V14.00,2013-01-09 12:27:00,
2013-01-09 06:33:00,46.0,42.7,29.41,South,178,0.0,0.0,88,0.00,,---,0.00,VWS V14.00,2013-01-09 12:33:00,
2013-01-09 06:34:00,46.0,42.7,29.41,South,178,0.0,0.0,88,0.00,,---,0.00,VWS V14.00,2013-01-09 12:34:00,
2013-01-09 06:39:00,46.0,42.7,29.41,South,178,0.0,0.0,88,0.00,,---,0.00,VWS V14.00,2013-01-09 12:39:00,
2013-01-09 06:42:00,46.2,42.8,29.41,South,178,0.0,0.0,88,0.00,,---,0.00,VWS V14.00,2013-01-09 12:42:00,
2013-01-09 06:45:00,46.2,42.8,29.41,South,178,0.0,0.0,88,0.00,,---,0.00,VWS V14.00,2013-01-09 12:45:00,
2013-01-09 06:49:00,46.2,42.8,29.41,South,178,0.0,0.0,88,0.00,,---,0.00,VWS V14.00,2013-01-09 12:49:00,
2013-01-09 06:54:00,46.2,42.8,29.41,South,178,0.0,0.0,88,0.00,,---,0.00,VWS V14.00,2013-01-09 12:54:00,
2013-01-09 07:00:00,46.2,42.2,29.41,South,178,0.0,0.0,86,0.00,,---,0.00,VWS V14.00,2013-01-09 13:00:00,
2013-01-09 07:07:00,46.4,42.4,29.44,South,178,0.0,0.0,86,0.00,,---,0.00,VWS V14.00,2013-01-09 13:07:00,
2013-01-09 07:10:00,46.4,42.1,29.44,South,178,0.0,0.0,85,0.00,,---,0.00,VWS V14.00,2013-01-09 13:10:00,
2013-01-09 07:16:00,46.4,42.1,29.44,South,178,0.0,0.0,85,0.00,,---,0.00,VWS V14.00,2013-01-09 13:16:00,
2013-01-09 07:19:00,46.4,42.1,29.44,South,178,0.0,0.0,85,0.00,,---,0.00,VWS V14.00,2013-01-09 13:19:00,
2013-01-09 07:25:00,46.4,42.1,29.44,South,178,0.0,0.0,85,0.00,,---,0.00,VWS V14.00,2013-01-09 13:25:00,
2013-01-09 07:28:00,46.2,42.0,29.44,South,178,0.0,0.0,85,0.00,,---,0.00,VWS V14.00,2013-01-09 13:28:00,
2013-01-09 07:31:00,46.2,42.0,29.44,South,178,0.0,0.0,85,0.00,,---,0.00,VWS V14.00,2013-01-09 13:31:00,
2013-01-09 07:34:00,46.0,42.1,29.44,South,178,0.0,0.0,86,0.00,,---,0.00,VWS V14.00,2013-01-09 13:34:00,
2013-01-09 07:37:00,46.0,42.1,29.44,South,178,0.0,0.0,86,0.00,,---,0.00,VWS V14.00,2013-01-09 13:37:00,
2013-01-09 07:43:00,45.8,41.9,29.44,South,178,0.0,0.0,86,0.00,,---,0.00,VWS V14.00,2013-01-09 13:43:00,
2013-01-09 07:46:00,45.8,41.9,29.44,South,178,0.0,0.0,86,0.00,,---,0.00,VWS V14.00,2013-01-09 13:46:00,
2013-01-09 07:49:00,45.8,41.9,29.44,South,178,0.0,0.0,86,0.00,,---,0.00,VWS V14.00,2013-01-09 13:49:00,
2013-01-09 07:52:00,45.7,41.7,29.44,South,178,0.0,0.0,86,0.00,,---,0.00,VWS V14.00,2013-01-09 13:52:00,
2013-01-09 07:55:00,45.7,41.7,29.44,South,178,0.0,0.0,86,0.00,,---,0.00,VWS V14.00,2013-01-09 13:55:00,
2013-01-09 07:58:00,45.7,41.7,29.44,South,178,0.0,0.0,86,0.00,,---,0.00,VWS V14.00,2013-01-09 13:58:00,
2013-01-09 08:01:00,45.5,41.5,29.44,South,178,0.0,0.0,86,0.00,,---,0.00,VWS V14.00,2013-01-09 14:01:00,
2013-01-09 08:04:00,45.5,41.5,29.44,South,178,0.0,0.0,86,0.00,,---,0.00,VWS V14.00,2013-01-09 14:04:00,
2013-01-09 08:10:00,45.5,41.5,29.44,South,178,0.0,0.0,86,0.00,,---,0.00,VWS V14.00,2013-01-09 14:10:00,
2013-01-09 08:16:00,45.7,41.7,29.47,South,178,0.0,0.0,86,0.00,,---,0.00,VWS V14.00,2013-01-09 14:16:00,
2013-01-09 08:19:00,45.7,41.7,29.47,South,178,0.0,0.0,86,0.00,,---,0.00,VWS V14.00,2013-01-09 14:19:00,
2013-01-09 08:22:00,45.7,41.7,29.47,South,178,0.0,0.0,86,0.00,,---,0.00,VWS V14.00,2013-01-09 14:22:00,
2013-01-09 08:28:00,45.8,41.9,29.47,South,178,0.0,0.0,86,0.00,,---,0.00,VWS V14.00,2013-01-09 14:28:00,
2013-01-09 08:31:00,45.8,42.2,29.47,South,178,0.0,0.0,87,0.00,,---,0.00,VWS V14.00,2013-01-09 14:31:00,
2013-01-09 08:37:00,46.0,42.4,29.47,South,178,0.0,0.0,87,0.00,,---,0.00,VWS V14.00,2013-01-09 14:37:00,
2013-01-09 08:40:00,46.0,42.4,29.47,South,178,0.0,0.0,87,0.00,,---,0.00,VWS V14.00,2013-01-09 14:40:00,
2013-01-09 08:43:00,46.2,42.8,29.47,South,178,0.0,0.0,88,0.00,,---,0.00,VWS V14.00,2013-01-09 14:43:00,
2013-01-09 08:49:00,46.2,42.8,29.47,South,178,0.0,0.0,88,0.00,,---,0.00,VWS V14.00,2013-01-09 14:49:00,
2013-01-09 08:52:00,46.4,43.0,29.47,South,178,0.0,0.0,88,0.00,,---,0.00,VWS V14.00,2013-01-09 14:52:00,
2013-01-09 08:55:00,46.4,43.0,29.47,South,178,0.0,0.0,88,0.00,,---,0.00,VWS V14.00,2013-01-09 14:55:00,
2013-01-09 09:01:00,46.7,43.1,29.47,South,178,0.0,0.0,87,0.00,,---,0.00,VWS V14.00,2013-01-09 15:01:00,
2013-01-09 09:04:00,46.7,43.1,29.47,South,178,0.0,0.0,87,0.00,,---,0.00,VWS V14.00,2013-01-09 15:04:00,
2013-01-09 09:10:00,46.9,43.0,29.47,South,178,0.0,0.0,86,0.00,,---,0.00,VWS V14.00,2013-01-09 15:10:00,
2013-01-09 09:13:00,46.9,43.0,29.47,South,178,0.0,0.0,86,0.00,,---,0.00,VWS V14.00,2013-01-09 15:13:00,
2013-01-09 09:16:00,46.9,43.0,29.47,South,178,0.0,0.0,86,0.00,,---,0.00,VWS V14.00,2013-01-09 15:16:00,
2013-01-09 09:19:00,47.5,42.9,29.47,South,178,0.0,0.0,84,0.00,,---,0.00,VWS V14.00,2013-01-09 15:19:00,
2013-01-09 09:25:00,47.6,42.7,29.47,South,178,0.0,0.0,83,0.00,,---,0.00,VWS V14.00,2013-01-09 15:25:00,
2013-01-09 09:31:00,47.8,42.6,29.47,South,178,0.0,0.0,82,0.00,,---,0.00,VWS V14.00,2013-01-09 15:31:00,
2013-01-09 09:34:00,48.0,42.5,29.47,South,178,0.0,0.0,81,0.00,,---,0.00,VWS V14.00,2013-01-09 15:34:00,
2013-01-09 09:37:00,48.0,42.5,29.47,South,178,0.0,0.0,81,0.00,,---,0.00,VWS V14.00,2013-01-09 15:37:00,
2013-01-09 09:40:00,48.2,42.6,29.47,South,178,0.0,0.0,81,0.00,,---,0.00,VWS V14.00,2013-01-09 15:40:00,
2013-01-09 09:46:00,48.7,43.2,29.47,South,178,0.0,0.0,81,0.00,,---,0.00,VWS V14.00,2013-01-09 15:46:00,
2013-01-09 09:49:00,48.9,43.3,29.47,South,178,0.0,0.0,81,0.00,,---,0.00,VWS V14.00,2013-01-09 15:49:00,
2013-01-09 09:52:00,49.1,43.5,29.47,South,178,0.0,0.0,81,0.00,,---,0.00,VWS V14.00,2013-01-09 15:52:00,
2013-01-09 09:55:00,49.1,43.5,29.47,South,178,0.0,0.0,81,0.00,,---,0.00,VWS V14.00,2013-01-09 15:55:00,
2013-01-09 09:58:00,49.6,44.0,29.47,South,178,0.0,0.0,81,0.00,,---,0.00,VWS V14.00,2013-01-09 15:58:00,
2013-01-09 10:01:00,50.0,44.4,29.47,South,178,0.0,0.0,81,0.00,,---,0.00,VWS V14.00,2013-01-09 16:01:00,
2013-01-09 10:04:00,50.2,44.6,29.47,South,178,0.0,0.0,81,0.00,,---,0.00,VWS V14.00,2013-01-09 16:04:00,
2013-01-09 10:10:00,50.7,44.8,29.47,South,180,0.0,0.0,80,0.00,,---,0.00,VWS V14.00,2013-01-09 16:10:00,
2013-01-09 10:16:00,51.2,45.3,29.47,South,180,0.0,0.0,80,0.00,,---,0.00,VWS V14.00,2013-01-09 16:16:00,
2013-01-09 10:19:00,51.4,45.1,29.47,South,180,0.0,0.0,79,0.00,,---,0.00,VWS V14.00,2013-01-09 16:19:00,
2013-01-09 10:22:00,51.6,45.0,29.47,South,180,0.0,0.0,78,0.00,,---,0.00,VWS V14.00,2013-01-09 16:22:00,
2013-01-09 10:25:00,51.6,45.0,29.47,South,180,0.0,0.0,78,0.00,,---,0.00,VWS V14.00,2013-01-09 16:25:00,
2013-01-09 10:28:00,52.0,45.0,29.47,South,180,0.0,0.0,77,0.00,,---,0.00,VWS V14.00,2013-01-09 16:28:00,
2013-01-09 10:34:00,52.1,44.8,29.47,South,180,0.0,0.0,76,0.00,,---,0.00,VWS V14.00,2013-01-09 16:34:00,
2013-01-09 10:40:00,52.5,44.8,29.47,South,180,0.0,0.0,75,0.00,,---,0.00,VWS V14.00,2013-01-09 16:40:00,
2013-01-09 10:43:00,52.5,44.8,29.47,South,180,0.0,0.0,75,0.00,,---,0.00,VWS V14.00,2013-01-09 16:43:00,
2013-01-09 10:49:00,52.7,45.0,29.47,South,180,0.0,2.2,75,0.00,,---,0.00,VWS V14.00,2013-01-09 16:49:00,
2013-01-09 10:55:00,53.0,45.0,29.47,South,180,0.0,0.0,74,0.00,,---,0.00,VWS V14.00,2013-01-09 16:55:00,
2013-01-09 11:01:00,53.6,45.2,29.47,South,180,0.0,0.0,73,0.00,,---,0.00,VWS V14.00,2013-01-09 17:01:00,
2013-01-09 11:04:00,53.6,45.2,29.47,South,180,0.0,0.0,73,0.00,,---,0.00,VWS V14.00,2013-01-09 17:04:00,
2013-01-09 11:07:00,53.9,45.1,29.47,South,180,0.0,0.0,72,0.00,,---,0.00,VWS V14.00,2013-01-09 17:07:00,
2013-01-09 11:10:00,53.9,45.1,29.47,South,180,0.0,0.0,72,0.00,,---,0.00,VWS V14.00,2013-01-09 17:10:00,
2013-01-09 11:13:00,54.1,44.9,29.47,South,180,0.0,0.0,71,0.00,,---,0.00,VWS V14.00,2013-01-09 17:13:00,
2013-01-09 11:16:00,54.3,44.7,29.47,South,180,2.2,2.2,70,0.00,,---,0.00,VWS V14.00,2013-01-09 17:16:00,
2013-01-09 11:19:00,54.3,44.7,29.47,NW,305,4.9,4.9,70,0.00,,---,0.00,VWS V14.00,2013-01-09 17:19:00,
2013-01-09 11:25:00,54.7,43.5,29.44,North,2,2.2,4.9,66,0.00,,---,0.00,VWS V14.00,2013-01-09 17:25:00,
2013-01-09 11:28:00,54.7,43.5,29.44,North,3,0.0,4.9,66,0.00,,---,0.00,VWS V14.00,2013-01-09 17:28:00,
2013-01-09 11:34:00,54.7,43.1,29.44,NE,56,3.6,4.9,65,0.00,,---,0.00,VWS V14.00,2013-01-09 17:34:00,
2013-01-09 11:40:00,54.7,42.7,29.47,NE,47,0.0,3.6,64,0.00,,---,0.00,VWS V14.00,2013-01-09 17:40:00,
2013-01-09 11:43:00,54.8,42.9,29.47,North,8,3.1,3.6,64,0.00,,---,0.00,VWS V14.00,2013-01-09 17:43:00,
2013-01-09 11:46:00,54.8,42.9,29.47,North,8,3.1,3.6,64,0.00,,---,0.00,VWS V14.00,2013-01-09 17:46:00,
2013-01-09 11:49:00,55.0,43.1,29.47,North,8,3.1,3.6,64,0.00,,---,0.00,VWS V14.00,2013-01-09 17:49:00,
2013-01-09 11:55:00,55.0,42.7,29.47,North,353,0.0,3.1,63,0.00,,---,0.00,VWS V14.00,2013-01-09 17:55:00,
2013-01-09 11:58:00,55.2,42.8,29.44,North,353,0.0,3.1,63,0.00,,---,0.00,VWS V14.00,2013-01-09 17:58:00,
2013-01-09 12:04:00,55.4,42.6,29.44,NNW,336,0.0,3.1,62,0.00,,---,0.00,VWS V14.00,2013-01-09 18:04:00,
2013-01-09 12:10:00,55.6,42.8,29.44,NNW,345,3.1,3.1,62,0.00,,---,0.00,VWS V14.00,2013-01-09 18:10:00,
2013-01-09 12:13:00,55.7,42.9,29.44,North,357,0.0,3.6,62,0.00,,---,0.00,VWS V14.00,2013-01-09 18:13:00,
2013-01-09 12:16:00,55.9,42.7,29.44,North,357,0.0,3.6,61,0.00,,---,0.00,VWS V14.00,2013-01-09 18:16:00,
2013-01-09 12:19:00,55.9,42.7,29.44,ENE,77,0.0,0.0,61,0.00,,---,0.00,VWS V14.00,2013-01-09 18:19:00,
2013-01-09 12:23:00,55.9,42.7,29.44,North,353,3.6,3.6,61,0.00,,---,0.00,VWS V14.00,2013-01-09 18:23:00,
2013-01-09 12:26:00,56.1,42.8,29.44,North,353,3.6,3.6,61,0.00,,---,0.00,VWS V14.00,2013-01-09 18:26:00,
2013-01-09 12:29:00,56.1,42.8,29.44,NNE,15,2.7,3.6,61,0.00,,---,0.00,VWS V14.00,2013-01-09 18:29:00,
2013-01-09 12:32:00,56.1,42.4,29.44,North,357,5.4,5.4,60,0.00,,---,0.00,VWS V14.00,2013-01-09 18:32:00,
2013-01-09 12:34:00,56.1,42.4,29.44,North,357,5.4,5.4,60,0.00,,---,0.00,VWS V14.00,2013-01-09 18:34:00,
2013-01-09 12:38:00,56.1,42.4,29.44,North,357,5.4,5.4,60,0.00,,---,0.00,VWS V14.00,2013-01-09 18:38:00,
2013-01-09 12:44:00,55.9,42.2,29.44,North,0,3.1,5.4,60,0.00,,---,0.00,VWS V14.00,2013-01-09 18:44:00,
2013-01-09 12:47:00,55.9,42.2,29.44,North,6,2.2,5.4,60,0.00,,---,0.00,VWS V14.00,2013-01-09 18:47:00,
2013-01-09 12:49:00,56.1,42.0,29.44,North,6,2.2,5.4,59,0.00,,---,0.00,VWS V14.00,2013-01-09 18:49:00,
2013-01-09 12:50:00,56.1,42.0,29.44,North,6,2.2,2.2,59,0.00,,---,0.00,VWS V14.00,2013-01-09 18:50:00,
2013-01-09 12:53:00,56.3,42.6,29.44,North,6,2.2,2.2,60,0.00,,---,0.00,VWS V14.00,2013-01-09 18:53:00,
2013-01-09 12:56:00,56.3,42.2,29.44,NNW,343,2.2,2.7,59,0.00,,---,0.00,VWS V14.00,2013-01-09 18:56:00,
2013-01-09 13:02:00,56.3,41.7,29.44,NNE,28,0.0,2.7,58,0.00,,---,0.00,VWS V14.00,2013-01-09 19:02:00,
2013-01-09 13:04:00,56.5,41.9,29.44,NNW,337,0.0,2.7,58,0.00,,---,0.00,VWS V14.00,2013-01-09 19:04:00,
2013-01-09 13:08:00,56.5,41.9,29.44,NNW,337,0.0,0.0,58,0.00,,---,0.00,VWS V14.00,2013-01-09 19:08:00,
2013-01-09 13:11:00,56.6,42.0,29.44,North,349,0.0,0.0,58,0.00,,---,0.00,VWS V14.00,2013-01-09 19:11:00,
2013-01-09 13:14:00,56.6,42.0,29.41,NNE,15,0.0,0.0,58,0.00,,---,0.00,VWS V14.00,2013-01-09 19:14:00,
2013-01-09 13:17:00,56.8,41.8,29.41,NNE,15,0.0,0.0,57,0.00,,---,0.00,VWS V14.00,2013-01-09 19:17:00,
2013-01-09 13:23:00,57.0,41.9,29.41,North,357,0.0,0.0,57,0.00,,---,0.00,VWS V14.00,2013-01-09 19:23:00,
2013-01-09 13:26:00,57.0,41.9,29.41,North,357,0.0,0.0,57,0.00,,---,0.00,VWS V14.00,2013-01-09 19:26:00,
2013-01-09 13:29:00,57.2,41.6,29.41,North,357,0.0,0.0,56,0.00,,---,0.00,VWS V14.00,2013-01-09 19:29:00,
2013-01-09 13:32:00,57.2,41.2,29.41,North,357,0.0,0.0,55,0.00,,---,0.00,VWS V14.00,2013-01-09 19:32:00,
2013-01-09 13:34:00,57.2,41.2,29.41,North,357,0.0,0.0,55,0.00,,---,0.00,VWS V14.00,2013-01-09 19:34:00,
2013-01-09 13:35:00,57.2,41.2,29.41,NNE,14,3.1,3.1,55,0.00,,---,0.00,VWS V14.00,2013-01-09 19:35:00,
2013-01-09 13:41:00,57.4,41.3,29.41,North,353,0.0,3.1,55,0.00,,---,0.00,VWS V14.00,2013-01-09 19:41:00,
2013-01-09 13:47:00,57.4,41.3,29.41,NNE,15,0.0,3.1,55,0.00,,---,0.00,VWS V14.00,2013-01-09 19:47:00,
2013-01-09 13:49:00,57.5,41.5,29.41,NNE,15,2.2,3.1,55,0.00,,---,0.00,VWS V14.00,2013-01-09 19:49:00,
2013-01-09 13:56:00,57.5,41.5,29.41,NNW,344,2.7,2.7,55,0.00,,---,0.00,VWS V14.00,2013-01-09 19:56:00,
2013-01-09 14:02:00,57.5,41.0,29.41,NNW,333,0.0,2.7,54,0.00,,---,0.00,VWS V14.00,2013-01-09 20:02:00,
2013-01-09 14:04:00,57.4,40.9,29.41,North,353,0.0,2.7,54,0.00,,---,0.00,VWS V14.00,2013-01-09 20:04:00,
2013-01-09 14:11:00,57.5,41.0,29.41,North,353,0.0,2.2,54,0.00,,---,0.00,VWS V14.00,2013-01-09 20:11:00,
2013-01-09 14:14:00,57.5,41.0,29.41,North,353,0.0,2.2,54,0.00,,---,0.00,VWS V14.00,2013-01-09 20:14:00,
2013-01-09 14:19:00,57.7,41.2,29.41,North,353,0.0,3.6,54,0.00,,---,0.00,VWS V14.00,2013-01-09 20:19:00,
2013-01-09 14:23:00,57.7,41.2,29.41,North,9,2.2,2.2,54,0.00,,---,0.00,VWS V14.00,2013-01-09 20:23:00,
2013-01-09 14:29:00,57.5,40.6,29.41,NNE,30,0.0,2.2,53,0.00,,---,0.00,VWS V14.00,2013-01-09 20:29:00,
2013-01-09 14:32:00,57.5,40.6,29.41,NNE,15,0.0,2.2,53,0.00,,---,0.00,VWS V14.00,2013-01-09 20:32:00,
2013-01-09 14:34:00,57.5,40.6,29.41,NNE,15,0.0,2.2,53,0.00,,---,0.00,VWS V14.00,2013-01-09 20:34:00,
2013-01-09 14:35:00,57.5,40.6,29.41,NNE,15,0.0,0.0,53,0.00,,---,0.00,VWS V14.00,2013-01-09 20:35:00,
2013-01-09 14:38:00,57.5,40.6,29.41,North,7,3.1,3.1,53,0.00,,---,0.00,VWS V14.00,2013-01-09 20:38:00,
2013-01-09 14:44:00,57.4,39.9,29.41,North,0,0.0,3.1,52,0.00,,---,0.00,VWS V14.00,2013-01-09 20:44:00,
2013-01-09 14:47:00,57.4,39.4,29.41,NNE,29,0.0,3.1,51,0.00,,---,0.00,VWS V14.00,2013-01-09 20:47:00,
2013-01-09 14:49:00,57.4,39.4,29.41,North,353,2.2,3.1,51,0.00,,---,0.00,VWS V14.00,2013-01-09 20:49:00,
2013-01-09 14:50:00,57.4,39.4,29.41,North,353,2.2,2.2,51,0.00,,---,0.00,VWS V14.00,2013-01-09 20:50:00,
2013-01-09 14:56:00,57.4,39.4,29.41,West,271,2.7,3.6,51,0.00,,---,0.00,VWS V14.00,2013-01-09 20:56:00,
2013-01-09 15:02:00,57.2,38.7,29.41,ESE,111,2.2,3.6,50,0.00,,---,0.00,VWS V14.00,2013-01-09 21:02:00,
2013-01-09 15:05:00,57.2,38.7,29.41,ESE,111,2.7,2.7,50,0.00,,---,0.00,VWS V14.00,2013-01-09 21:05:00,
2013-01-09 15:08:00,57.2,38.7,29.41,ESE,111,0.0,2.7,50,0.00,,---,0.00,VWS V14.00,2013-01-09 21:08:00,
2013-01-09 15:14:00,57.0,38.0,29.41,NNE,21,0.0,2.7,49,0.00,,---,0.00,VWS V14.00,2013-01-09 21:14:00,
2013-01-09 15:17:00,57.0,38.0,29.41,North,357,2.7,2.7,49,0.00,,---,0.00,VWS V14.00,2013-01-09 21:17:00,
2013-01-09 15:19:00,57.0,38.0,29.41,North,0,0.0,2.7,49,0.00,,---,0.00,VWS V14.00,2013-01-09 21:19:00,
2013-01-09 15:23:00,56.8,37.9,29.41,NE,54,0.0,0.0,49,0.00,,---,0.00,VWS V14.00,2013-01-09 21:23:00,
2013-01-09 15:26:00,56.6,37.7,29.41,NNE,15,3.6,3.6,49,0.00,,---,0.00,VWS V14.00,2013-01-09 21:26:00,
2013-01-09 15:29:00,56.6,37.7,29.41,South,173,2.2,3.6,49,0.00,,---,0.00,VWS V14.00,2013-01-09 21:29:00,
2013-01-09 15:32:00,56.5,37.0,29.41,NE,49,2.2,4.9,48,0.00,,---,0.00,VWS V14.00,2013-01-09 21:32:00,
2013-01-09 15:34:00,56.5,37.0,29.41,ESE,112,2.7,4.9,48,0.00,,---,0.00,VWS V14.00,2013-01-09 21:34:00,
2013-01-09 15:41:00,56.5,37.0,29.41,East,96,4.0,4.0,48,0.00,,---,0.00,VWS V14.00,2013-01-09 21:41:00,
2013-01-09 15:44:00,56.5,37.0,29.41,SSE,162,0.0,4.0,48,0.00,,---,0.00,VWS V14.00,2013-01-09 21:44:00,
2013-01-09 15:47:00,56.5,37.0,29.41,SSE,161,0.0,4.0,48,0.00,,---,0.00,VWS V14.00,2013-01-09 21:47:00,
2013-01-09 15:50:00,56.5,37.0,29.41,NNE,22,3.6,3.6,48,0.00,,---,0.00,VWS V14.00,2013-01-09 21:50:00,
2013-01-09 15:53:00,56.1,36.7,29.41,NNE,31,0.0,3.6,48,0.00,,---,0.00,VWS V14.00,2013-01-09 21:53:00,
2013-01-09 15:56:00,56.1,36.7,29.41,NNE,31,0.0,3.6,48,0.00,,---,0.00,VWS V14.00,2013-01-09 21:56:00,
2013-01-09 15:59:00,55.9,37.0,29.41,NNE,31,0.0,3.6,49,0.00,,---,0.00,VWS V14.00,2013-01-09 21:59:00,
2013-01-09 16:04:00,55.7,36.9,29.41,NNE,13,0.0,3.6,49,0.00,,---,0.00,VWS V14.00,2013-01-09 22:04:00,
2013-01-09 16:05:00,55.7,36.9,29.41,NNE,13,0.0,0.0,49,0.00,,---,0.00,VWS V14.00,2013-01-09 22:05:00,
2013-01-09 16:08:00,55.7,36.9,29.41,NE,51,0.0,0.0,49,0.00,,---,0.00,VWS V14.00,2013-01-09 22:08:00,
2013-01-09 16:11:00,55.7,36.9,29.41,SE,133,0.0,0.0,49,0.00,,---,0.00,VWS V14.00,2013-01-09 22:11:00,
2013-01-09 16:14:00,55.7,36.9,29.41,NE,51,0.0,2.7,49,0.00,,---,0.00,VWS V14.00,2013-01-09 22:14:00,
2013-01-09 16:17:00,55.4,36.6,29.41,NE,51,0.0,2.7,49,0.00,,---,0.00,VWS V14.00,2013-01-09 22:17:00,
2013-01-09 16:19:00,55.4,36.6,29.41,NE,51,0.0,2.7,49,0.00,,---,0.00,VWS V14.00,2013-01-09 22:19:00,
2013-01-09 16:20:00,55.4,36.6,29.41,NE,51,0.0,0.0,49,0.00,,---,0.00,VWS V14.00,2013-01-09 22:20:00,
2013-01-09 16:26:00,55.4,36.6,29.44,NNE,17,0.0,0.0,49,0.00,,---,0.00,VWS V14.00,2013-01-09 22:26:00,
2013-01-09 16:29:00,55.4,36.6,29.44,ESE,110,2.7,2.7,49,0.00,,---,0.00,VWS V14.00,2013-01-09 22:29:00,
2013-01-09 16:32:00,55.4,36.6,29.44,ENE,61,0.0,2.7,49,0.00,,---,0.00,VWS V14.00,2013-01-09 22:32:00,
2013-01-09 16:34:00,55.4,36.6,29.44,ENE,61,0.0,2.7,49,0.00,,---,0.00,VWS V14.00,2013-01-09 22:34:00,
2013-01-09 16:41:00,55.4,36.6,29.41,NE,55,0.0,0.0,49,0.00,,---,0.00,VWS V14.00,2013-01-09 22:41:00,
2013-01-09 16:44:00,55.4,36.6,29.41,NNE,17,0.0,0.0,49,0.00,,---,0.00,VWS V14.00,2013-01-09 22:44:00,
2013-01-09 16:47:00,55.4,36.6,29.41,NNE,22,0.0,0.0,49,0.00,,---,0.00,VWS V14.00,2013-01-09 22:47:00,
2013-01-09 16:49:00,55.4,36.6,29.41,NNE,22,0.0,0.0,49,0.00,,---,0.00,VWS V14.00,2013-01-09 22:49:00,
2013-01-09 16:53:00,55.4,36.6,29.41,NNE,22,0.0,0.0,49,0.00,,---,0.00,VWS V14.00,2013-01-09 22:53:00,
2013-01-09 16:56:00,54.3,36.1,29.41,NNE,26,0.0,2.2,50,0.00,,---,0.00,VWS V14.00,2013-01-09 22:56:00,
2013-01-09 16:59:00,54.3,36.1,29.41,North,2,0.0,2.2,50,0.00,,---,0.00,VWS V14.00,2013-01-09 22:59:00,
2013-01-09 17:02:00,54.3,36.1,29.41,North,6,2.2,2.2,50,0.00,,---,0.00,VWS V14.00,2013-01-09 23:02:00,
2013-01-09 17:08:00,54.3,36.1,29.41,NW,321,2.7,2.7,50,0.00,,---,0.00,VWS V14.00,2013-01-09 23:08:00,
2013-01-09 17:11:00,53.9,35.7,29.41,NNE,13,0.0,2.7,50,0.00,,---,0.00,VWS V14.00,2013-01-09 23:11:00,
2013-01-09 17:15:00,53.9,35.7,29.41,North,5,0.0,2.7,50,0.00,,---,0.00,VWS V14.00,2013-01-09 23:15:00,
2013-01-09 17:18:00,53.9,35.7,29.41,North,2,0.0,2.7,50,0.00,,---,0.00,VWS V14.00,2013-01-09 23:18:00,
2013-01-09 17:24:00,53.9,35.7,29.41,North,1,0.0,0.0,50,0.00,,---,0.00,VWS V14.00,2013-01-09 23:24:00,
2013-01-09 17:27:00,53.9,35.7,29.41,North,2,0.0,0.0,50,0.00,,---,0.00,VWS V14.00,2013-01-09 23:27:00,
2013-01-09 17:30:00,53.9,35.7,29.41,North,353,0.0,0.0,50,0.00,,---,0.00,VWS V14.00,2013-01-09 23:30:00,
2013-01-09 17:34:00,53.9,35.7,29.41,North,353,0.0,0.0,50,0.00,,---,0.00,VWS V14.00,2013-01-09 23:34:00,
2013-01-09 17:36:00,53.4,35.2,29.41,NNE,14,0.0,0.0,50,0.00,,---,0.00,VWS V14.00,2013-01-09 23:36:00,
2013-01-09 17:42:00,53.4,35.2,29.44,NNE,15,0.0,0.0,50,0.00,,---,0.00,VWS V14.00,2013-01-09 23:42:00,
2013-01-09 17:48:00,53.4,35.2,29.44,ENE,75,2.7,2.7,50,0.00,,---,0.00,VWS V14.00,2013-01-09 23:48:00,
2013-01-09 17:54:00,53.4,35.2,29.44,NNE,17,0.0,0.0,50,0.00,,---,0.00,VWS V14.00,2013-01-09 23:54:00,
2013-01-09 17:57:00,53.4,35.2,29.44,North,9,0.0,2.7,50,0.00,,---,0.00,VWS V14.00,2013-01-09 23:57:00,
2013-01-09 18:00:00,53.4,35.2,29.44,NNE,17,0.0,2.7,50,0.00,,---,0.00,VWS V14.00,2013-01-10 00:00:00,
2013-01-09 18:04:00,53.0,35.4,29.44,NNE,17,0.0,2.7,51,0.00,,---,0.00,VWS V14.00,2013-01-10 00:04:00,
2013-01-09 18:06:00,52.9,35.2,29.44,NNE,17,0.0,0.0,51,0.00,,---,0.00,VWS V14.00,2013-01-10 00:06:00,
2013-01-09 18:09:00,52.9,35.2,29.44,NNE,17,0.0,0.0,51,0.00,,---,0.00,VWS V14.00,2013-01-10 00:09:00,
2013-01-09 18:12:00,52.9,35.2,29.44,NNE,17,0.0,0.0,51,0.00,,---,0.00,VWS V14.00,2013-01-10 00:12:00,
2013-01-09 18:18:00,52.9,35.2,29.44,South,191,0.0,2.2,51,0.00,,---,0.00,VWS V14.00,2013-01-10 00:18:00,
2013-01-09 18:24:00,52.9,35.2,29.44,South,191,0.0,0.0,51,0.00,,---,0.00,VWS V14.00,2013-01-10 00:24:00,
2013-01-09 18:30:00,52.9,35.2,29.44,ENE,68,0.0,0.0,51,0.00,,---,0.00,VWS V14.00,2013-01-10 00:30:00,
2013-01-09 18:33:00,52.9,35.2,29.44,ENE,68,0.0,0.0,51,0.00,,---,0.00,VWS V14.00,2013-01-10 00:33:00,
2013-01-09 18:36:00,52.9,35.2,29.44,North,353,0.0,0.0,51,0.00,,---,0.00,VWS V14.00,2013-01-10 00:36:00,
2013-01-09 18:42:00,52.9,35.2,29.44,ENE,76,2.7,4.9,51,0.00,,---,0.00,VWS V14.00,2013-01-10 00:42:00,
2013-01-09 18:45:00,52.9,35.2,29.44,ENE,65,0.0,4.9,51,0.00,,---,0.00,VWS V14.00,2013-01-10 00:45:00,
2013-01-09 18:48:00,52.9,35.2,29.44,SE,131,0.0,4.9,51,0.00,,---,0.00,VWS V14.00,2013-01-10 00:48:00,
2013-01-09 18:49:00,52.9,35.2,29.44,SE,131,0.0,4.9,51,0.00,,---,0.00,VWS V14.00,2013-01-10 00:49:00,
2013-01-09 18:54:00,52.9,35.7,29.44,SE,129,2.7,2.7,52,0.00,,---,0.00,VWS V14.00,2013-01-10 00:54:00,
2013-01-09 19:00:00,52.9,35.7,29.44,SE,129,0.0,2.7,52,0.00,,---,0.00,VWS V14.00,2013-01-10 01:00:00,
2013-01-09 19:03:00,52.9,35.7,29.44,SE,129,0.0,2.7,52,0.00,,---,0.00,VWS V14.00,2013-01-10 01:03:00,
2013-01-09 19:06:00,52.7,35.6,29.44,SE,129,0.0,0.0,52,0.00,,---,0.00,VWS V14.00,2013-01-10 01:06:00,
2013-01-09 19:09:00,52.7,35.6,29.44,SE,143,0.0,0.0,52,0.00,,---,0.00,VWS V14.00,2013-01-10 01:09:00,
2013-01-09 19:12:00,52.7,35.6,29.44,SE,142,0.0,0.0,52,0.00,,---,0.00,VWS V14.00,2013-01-10 01:12:00,
2013-01-09 19:15:00,52.7,35.6,29.44,SE,142,0.0,0.0,52,0.00,,---,0.00,VWS V14.00,2013-01-10 01:15:00,
2013-01-09 19:19:00,52.7,35.6,29.44,SE,143,0.0,0.0,52,0.00,,---,0.00,VWS V14.00,2013-01-10 01:19:00,
2013-01-09 19:21:00,52.7,35.6,29.44,SE,143,0.0,0.0,52,0.00,,---,0.00,VWS V14.00,2013-01-10 01:21:00,
2013-01-09 19:24:00,52.7,35.6,29.44,SE,143,0.0,0.0,52,0.00,,---,0.00,VWS V14.00,2013-01-10 01:24:00,
2013-01-09 19:27:00,52.7,35.6,29.44,SE,142,0.0,0.0,52,0.00,,---,0.00,VWS V14.00,2013-01-10 01:27:00,
2013-01-09 19:33:00,52.7,35.6,29.44,NE,48,0.0,2.2,52,0.00,,---,0.00,VWS V14.00,2013-01-10 01:33:00,
2013-01-09 19:34:00,52.7,35.6,29.44,NE,48,0.0,2.2,52,0.00,,---,0.00,VWS V14.00,2013-01-10 01:34:00,
2013-01-09 19:36:00,52.7,35.6,29.44,NNE,16,0.0,0.0,52,0.00,,---,0.00,VWS V14.00,2013-01-10 01:36:00,
2013-01-09 19:39:00,52.7,35.6,29.44,ENE,68,0.0,0.0,52,0.00,,---,0.00,VWS V14.00,2013-01-10 01:39:00,
2013-01-09 19:45:00,52.7,35.6,29.44,SE,146,0.0,3.1,52,0.00,,---,0.00,VWS V14.00,2013-01-10 01:45:00,
2013-01-09 19:48:00,52.7,35.6,29.44,ENE,76,2.7,3.1,52,0.00,,---,0.00,VWS V14.00,2013-01-10 01:48:00,
2013-01-09 19:51:00,52.7,35.6,29.44,ESE,104,2.7,2.7,52,0.00,,---,0.00,VWS V14.00,2013-01-10 01:51:00,
2013-01-09 19:54:00,52.7,35.6,29.44,ESE,104,0.0,2.7,52,0.00,,---,0.00,VWS V14.00,2013-01-10 01:54:00,
2013-01-09 19:57:00,52.7,35.6,29.44,ESE,104,2.7,2.7,52,0.00,,---,0.00,VWS V14.00,2013-01-10 01:57:00,
2013-01-09 20:00:00,52.5,35.9,29.44,ENE,69,3.6,3.6,53,0.00,,---,0.00,VWS V14.00,2013-01-10 02:00:00,
2013-01-09 20:03:00,52.5,35.9,29.44,ESE,118,4.0,4.0,53,0.00,,---,0.00,VWS V14.00,2013-01-10 02:03:00,
2013-01-09 20:06:00,52.5,35.9,29.44,SE,128,0.0,4.0,53,0.00,,---,0.00,VWS V14.00,2013-01-10 02:06:00,
2013-01-09 20:09:00,52.5,35.9,29.44,East,85,2.7,4.0,53,0.00,,---,0.00,VWS V14.00,2013-01-10 02:09:00,
2013-01-09 20:12:00,52.5,35.9,29.44,SE,125,2.7,4.0,53,0.00,,---,0.00,VWS V14.00,2013-01-10 02:12:00,
2013-01-09 20:18:00,52.5,35.9,29.44,SSE,152,0.0,4.0,53,0.00,,---,0.00,VWS V14.00,2013-01-10 02:18:00,
2013-01-09 20:19:00,52.5,35.9,29.44,SSE,152,0.0,4.0,53,0.00,,---,0.00,VWS V14.00,2013-01-10 02:19:00,
2013-01-09 20:21:00,52.5,35.9,29.44,SSE,152,0.0,0.0,53,0.00,,---,0.00,VWS V14.00,2013-01-10 02:21:00,
2013-01-09 20:24:00,52.5,35.9,29.44,SE,141,2.7,4.0,53,0.00,,---,0.00,VWS V14.00,2013-01-10 02:24:00,
2013-01-09 20:27:00,52.5,35.9,29.44,East,85,3.1,4.0,53,0.00,,---,0.00,VWS V14.00,2013-01-10 02:27:00,
2013-01-09 20:30:00,52.5,35.9,29.44,East,85,3.1,4.0,53,0.00,,---,0.00,VWS V14.00,2013-01-10 02:30:00,
2013-01-09 20:33:00,52.5,35.9,29.44,SSE,165,4.0,4.0,53,0.00,,---,0.00,VWS V14.00,2013-01-10 02:33:00,
2013-01-09 20:34:00,52.9,35.7,29.44,SSE,165,4.0,4.0,52,0.00,,---,0.00,VWS V14.00,2013-01-10 02:34:00,
2013-01-09 20:36:00,52.9,35.7,29.44,SE,133,2.7,4.0,52,0.00,,---,0.00,VWS V14.00,2013-01-10 02:36:00,
2013-01-09 20:42:00,52.9,35.7,29.44,East,83,2.7,5.4,52,0.00,,---,0.00,VWS V14.00,2013-01-10 02:42:00,
2013-01-09 20:45:00,52.9,35.7,29.44,SE,133,2.2,5.4,52,0.00,,---,0.00,VWS V14.00,2013-01-10 02:45:00,
2013-01-09 20:48:00,52.9,35.7,29.44,SE,133,2.2,5.4,52,0.00,,---,0.00,VWS V14.00,2013-01-10 02:48:00,
2013-01-09 20:49:00,52.9,35.7,29.44,SE,133,2.2,5.4,52,0.00,,---,0.00,VWS V14.00,2013-01-10 02:49:00,
2013-01-09 20:51:00,52.9,35.7,29.44,SE,132,3.6,3.6,52,0.00,,---,0.00,VWS V14.00,2013-01-10 02:51:00,
2013-01-09 20:57:00,52.9,35.7,29.44,SE,141,3.1,3.6,52,0.00,,---,0.00,VWS V14.00,2013-01-10 02:57:00,
2013-01-09 21:00:00,52.7,35.1,29.44,SE,128,3.6,3.6,51,0.00,,---,0.00,VWS V14.00,2013-01-10 03:00:00,
2013-01-09 21:03:00,52.7,35.1,29.44,SE,128,3.6,3.6,51,0.00,,---,0.00,VWS V14.00,2013-01-10 03:03:00,
2013-01-09 21:06:00,52.7,35.1,29.44,ESE,116,0.0,3.6,51,0.00,,---,0.00,VWS V14.00,2013-01-10 03:06:00,
2013-01-09 21:09:00,52.7,35.1,29.44,SE,131,2.7,3.6,51,0.00,,---,0.00,VWS V14.00,2013-01-10 03:09:00,
2013-01-09 21:12:00,52.7,35.1,29.44,East,92,3.6,3.6,51,0.00,,---,0.00,VWS V14.00,2013-01-10 03:12:00,
2013-01-09 21:15:00,52.7,35.1,29.44,SSW,207,3.6,3.6,51,0.00,,---,0.00,VWS V14.00,2013-01-10 03:15:00,
2013-01-09 21:18:00,52.7,35.1,29.44,SSW,207,3.6,3.6,51,0.00,,---,0.00,VWS V14.00,2013-01-10 03:18:00,
2013-01-09 21:19:00,52.7,35.1,29.44,SE,146,2.7,3.6,51,0.00,,---,0.00,VWS V14.00,2013-01-10 03:19:00,
2013-01-09 21:24:00,52.7,35.1,29.44,South,177,3.1,3.1,51,0.00,,---,0.00,VWS V14.00,2013-01-10 03:24:00,
2013-01-09 21:27:00,52.7,35.1,29.44,SSE,154,3.1,3.1,51,0.00,,---,0.00,VWS V14.00,2013-01-10 03:27:00,
2013-01-09 21:33:00,52.5,34.4,29.44,SSE,164,2.2,3.1,50,0.00,,---,0.00,VWS V14.00,2013-01-10 03:33:00,
2013-01-09 21:34:00,52.5,34.4,29.44,SSE,164,2.7,3.1,50,0.00,,---,0.00,VWS V14.00,2013-01-10 03:34:00,
2013-01-09 21:36:00,52.5,34.4,29.44,SSE,164,2.7,2.7,50,0.00,,---,0.00,VWS V14.00,2013-01-10 03:36:00,
2013-01-09 21:42:00,52.5,34.4,29.44,SSE,161,3.1,4.9,50,0.00,,---,0.00,VWS V14.00,2013-01-10 03:42:00,
2013-01-09 21:45:00,52.5,34.4,29.44,SSE,157,2.7,4.9,50,0.00,,---,0.00,VWS V14.00,2013-01-10 03:45:00,
2013-01-09 21:48:00,52.5,34.4,29.44,ESE,116,2.2,4.9,50,0.00,,---,0.00,VWS V14.00,2013-01-10 03:48:00,
2013-01-09 21:51:00,52.5,34.4,29.44,East,79,2.7,2.7,50,0.00,,---,0.00,VWS V14.00,2013-01-10 03:51:00,
2013-01-09 21:54:00,52.5,34.4,29.44,ENE,75,4.9,4.9,50,0.00,,---,0.00,VWS V14.00,2013-01-10 03:54:00,
2013-01-09 21:57:00,52.5,34.4,29.44,SSE,154,3.1,4.9,50,0.00,,---,0.00,VWS V14.00,2013-01-10 03:57:00,
2013-01-09 22:00:00,52.5,34.4,29.44,SSE,158,3.6,4.9,50,0.00,,---,0.00,VWS V14.00,2013-01-10 04:00:00,
2013-01-09 22:04:00,52.1,34.6,29.44,ESE,117,3.6,4.9,51,0.00,,---,0.00,VWS V14.00,2013-01-10 04:04:00,
2013-01-09 22:06:00,52.1,34.6,29.44,ESE,111,2.7,4.0,51,0.00,,---,0.00,VWS V14.00,2013-01-10 04:06:00,
2013-01-09 22:09:00,52.1,34.6,29.44,SE,125,2.2,5.4,51,0.00,,---,0.00,VWS V14.00,2013-01-10 04:09:00,
2013-01-09 22:12:00,52.1,34.6,29.44,ESE,104,2.7,5.4,51,0.00,,---,0.00,VWS V14.00,2013-01-10 04:12:00,
2013-01-09 22:16:00,52.1,34.1,29.44,ESE,105,4.9,5.4,50,0.00,,---,0.00,VWS V14.00,2013-01-10 04:16:00,
2013-01-09 22:19:00,52.1,34.1,29.44,South,175,5.4,5.4,50,0.00,,---,0.00,VWS V14.00,2013-01-10 04:19:00,
2013-01-09 22:22:00,52.1,34.1,29.44,ENE,69,2.7,2.7,50,0.00,,---,0.00,VWS V14.00,2013-01-10 04:22:00,
2013-01-09 22:25:00,52.1,34.1,29.44,SSE,150,3.6,3.6,50,0.00,,---,0.00,VWS V14.00,2013-01-10 04:25:00,
2013-01-09 22:28:00,52.1,34.1,29.44,ENE,78,5.4,5.4,50,0.00,,---,0.00,VWS V14.00,2013-01-10 04:28:00,
2013-01-09 22:31:00,52.1,34.1,29.44,SE,133,3.6,5.4,50,0.00,,---,0.00,VWS V14.00,2013-01-10 04:31:00,
2013-01-09 22:34:00,52.1,34.1,29.44,SE,133,3.6,5.4,50,0.00,,---,0.00,VWS V14.00,2013-01-10 04:34:00,
2013-01-09 22:37:00,52.1,34.1,29.44,East,92,4.9,7.2,50,0.00,,---,0.00,VWS V14.00,2013-01-10 04:37:00,
2013-01-09 22:40:00,52.1,34.1,29.41,East,92,4.9,7.2,50,0.00,,---,0.00,VWS V14.00,2013-01-10 04:40:00,
2013-01-09 22:46:00,52.1,34.1,29.41,ENE,68,2.7,7.2,50,0.00,,---,0.00,VWS V14.00,2013-01-10 04:46:00,
2013-01-09 22:49:00,52.1,33.6,29.41,ESE,119,4.9,7.2,49,0.00,,---,0.00,VWS V14.00,2013-01-10 04:49:00,
2013-01-09 22:55:00,52.1,33.6,29.41,SE,143,4.0,5.8,49,0.00,,---,0.00,VWS V14.00,2013-01-10 04:55:00,
2013-01-09 22:58:00,52.0,33.4,29.41,South,190,4.0,5.8,49,0.00,,---,0.00,VWS V14.00,2013-01-10 04:58:00,
2013-01-09 23:01:00,52.0,33.4,29.41,SSE,159,3.1,5.8,49,0.00,,---,0.00,VWS V14.00,2013-01-10 05:01:00,
2013-01-09 23:04:00,52.0,33.4,29.41,SE,129,7.2,7.2,49,0.00,,---,0.00,VWS V14.00,2013-01-10 05:04:00,
2013-01-09 23:07:00,52.0,33.4,29.41,ENE,70,5.4,7.2,49,0.00,,---,0.00,VWS V14.00,2013-01-10 05:07:00,
2013-01-09 23:10:00,52.0,33.4,29.41,SSE,153,5.8,7.2,49,0.00,,---,0.00,VWS V14.00,2013-01-10 05:10:00,
2013-01-09 23:13:00,52.0,33.4,29.41,SSE,153,5.8,7.2,49,0.00,,---,0.00,VWS V14.00,2013-01-10 05:13:00,
2013-01-09 23:16:00,51.8,33.2,29.41,SE,140,8.1,8.1,49,0.00,,---,0.00,VWS V14.00,2013-01-10 05:16:00,
2013-01-09 23:19:00,51.8,33.2,29.41,SE,142,5.8,8.1,49,0.00,,---,0.00,VWS V14.00,2013-01-10 05:19:00,
2013-01-09 23:25:00,51.8,33.2,29.41,SSE,158,6.3,8.7,49,0.00,,---,0.00,VWS V14.00,2013-01-10 05:25:00,
2013-01-09 23:28:00,51.2,33.8,29.41,SSE,155,5.8,8.7,51,0.00,,---,0.00,VWS V14.00,2013-01-10 05:28:00,
2013-01-09 23:31:00,51.1,34.1,29.41,East,88,4.0,8.7,52,0.00,,---,0.00,VWS V14.00,2013-01-10 05:31:00,
2013-01-09 23:34:00,51.1,34.1,29.41,ESE,112,4.0,8.7,52,0.00,,---,0.00,VWS V14.00,2013-01-10 05:34:00,
2013-01-09 23:37:00,51.1,34.1,29.41,ESE,112,4.0,4.0,52,0.00,,---,0.00,VWS V14.00,2013-01-10 05:37:00,
2013-01-09 23:40:00,50.7,33.7,29.41,SSE,153,4.0,4.9,52,0.00,,---,0.00,VWS V14.00,2013-01-10 05:40:00,
2013-01-09 23:46:00,50.7,33.7,29.41,South,185,4.9,4.9,52,0.00,,---,0.00,VWS V14.00,2013-01-10 05:46:00,
2013-01-09 23:49:00,50.7,33.7,29.41,ESE,104,4.9,6.3,52,0.00,,---,0.00,VWS V14.00,2013-01-10 05:49:00,
2013-01-09 23:52:00,50.3,33.9,29.41,ENE,76,3.6,8.3,53,0.00,,---,0.00,VWS V14.00,2013-01-10 05:52:00,
2013-01-09 23:58:00,50.2,34.2,29.41,SE,125,8.7,8.7,54,0.00,,---,0.00,VWS V14.00,2013-01-10 05:58:00,